Location: Budapest
(47.4979°N, 19.0402°E)
Time: 19:48:53
(UTC+02:00)

Envisat - Pass Details

Date: 09 October 2017
Orbit: 764 x 766 km, 98.2° (Epoch: 21 October)

Event Time Altitude Azimuth Distance (km) Brightness Sun altitude
Exits shadow 21:03:48 37° 229° (SW) 1,189 4.1 -30.0°
Maximum altitude 21:04:57 42° 262° (W) 1,085 4.0 -30.1°
Drops below altitude 10° 21:09:47 10° 333° (NNW) 2,313 6.1 -30.9°
Sets 21:12:13 0° 341° (NNW) 3,243 6.9 -31.2°
